Flight Track Log - Related Links

Times and Time Zones

All times are in EDT time to prevent confusion due to time zone crossing. See the HAL122 flight status page for this flight to view local times or setup timezone preferences in your user account.

Time Position Orientation Groundspeed Altitude Reporting Facility
EDT Latitude Longitude Course Direction KTS MPH feet Rate Location/Type
Thu 01:34:01 PM 21.3167 -157.9000 102° East 170 196 1,100  Level Honolulu Center
Thu 01:35:02 PM 21.2667 -157.8667 148° Southeast 230 265 2,600 1,785 Climbing Honolulu Center
Thu 01:36:00 PM 21.2561 -157.6638 102° East  Level FlightAware Approximate
Thu 01:36:02 PM 21.2167 -157.8167 137° Southeast 260 299 4,700  Level Honolulu Center
Thu 01:37:00 PM 21.2325 -157.5807 110° East  Level FlightAware Approximate
Thu 01:37:02 PM 21.2167 -157.7333 90° East 290 334 6,600  Level Honolulu Center
Thu 01:38:00 PM 21.2052 -157.4988 110° East  Level FlightAware Approximate
Thu 01:38:02 PM 21.2000 -157.6500 102° East 290 334 9,100  Level Honolulu Center
Thu 01:39:00 PM 21.1862 -157.4144 102° East  Level FlightAware Approximate
Thu 01:39:02 PM 21.1833 -157.5500 100° East 300 345 10,700  Level Honolulu Center
Thu 01:40:02 PM 21.1667 -157.4500 100° East 350 403 11,600 1,000 Climbing Honolulu Center
Thu 01:41:02 PM 21.1333 -157.3500 110° East 380 437 12,700 1,350 Climbing Honolulu Center
Thu 01:42:02 PM 21.1000 -157.2500 110° East 390 449 14,300 1,450 Climbing Honolulu Center
Thu 01:43:02 PM 21.0500 -157.1500 118° Southeast 410 472 15,600 1,500 Climbing Honolulu Center
Thu 01:44:02 PM 21.0000 -157.0333 115° Southeast 410 472 17,300 1,550 Climbing Honolulu Center
Thu 01:45:02 PM 20.9500 -156.9167 115° Southeast 420 483 18,700 1,388 Climbing Honolulu Center
Thu 01:46:03 PM 20.8833 -156.8000 121° Southeast 430 495 20,100 1,190 Climbing Honolulu Center
Thu 01:47:03 PM 20.8333 -156.6833 115° Southeast 440 506 21,100 1,050 Climbing Honolulu Center
Thu 01:48:03 PM 20.7833 -156.5500 112° Southeast 460 529 22,200 1,200 Climbing Honolulu Center
Thu 01:49:03 PM 20.7167 -156.4333 121° Southeast 470 541 23,500 1,400 Climbing Honolulu Center
Thu 01:50:03 PM 20.6667 -156.3000 112° Southeast 470 541 25,000 464 Climbing Honolulu Center
Thu 01:52:04 PM 20.5500 -156.0500 116° Southeast 470 541 24,900 -33 Descending Honolulu Center
Thu 01:53:03 PM 20.5000 -155.9333 115° Southeast 470 541 24,900 -958 Level Honolulu Center
Thu 01:54:03 PM 20.4500 -155.8167 115° Southeast 460 529 23,000 -2,430 Descending Honolulu Center
Thu 01:55:04 PM 20.4000 -155.7000 115° Southeast 430 495 20,000 -2,777 Descending Honolulu Center
Thu 01:56:04 PM 20.3333 -155.6000 125° Southeast 400 460 17,400 -2,400 Descending Honolulu Center
Thu 01:57:04 PM 20.3000 -155.5000 110° East 380 437 15,200 -2,100 Descending Honolulu Center
Thu 01:58:04 PM 20.2500 -155.4000 118° Southeast 340 391 13,200 -1,900 Descending Honolulu Center
Thu 01:59:04 PM 20.2000 -155.3167 123° Southeast 330 380 11,400 -1,750 Descending Honolulu Center
Thu 02:00:04 PM 20.1333 -155.2500 137° Southeast 300 345 9,700 -1,850 Descending Honolulu Center
Thu 02:01:04 PM 20.0833 -155.1667 123° Southeast 290 334 7,700 -1,850 Descending Honolulu Center
Thu 02:02:04 PM 20.0333 -155.1167 137° Southeast 280 322 6,000 -1,785 Descending Honolulu Center
Thu 02:03:05 PM 19.9667 -155.0833 155° Southeast 270 311 4,100 -1,835 Descending Honolulu Center
Thu 02:04:05 PM 19.9000 -155.0667 167° South 260 299 2,300 -1,800 Descending Honolulu Center

Login

Don't have an account? Register now (free) for customized features, flight alerts, and more!